Weather in Korostyn

Russia / Novgorod Oblast     58°11′10″N   30°59′14″E
temp.,
°C
wind,
m/s
gust,
m/s
humid.,
%
clouds,
%
prec.,
mm/h
press.,
hPa
HPBL,
m
13 august, sat
sat1300:00+18w3372100 0.0 102357
03:00+16wsw347795 0.0 102373
06:00+16wsw238571 0.0 102369
09:00+20wsw236959 0.0 1023292
12:00+24wsw125619 0.0 1022645
15:00+25ene12506 0.0 1021906
18:00+24ese21565 0.0 1021617
21:00+21sse116518 0.0 102111
14 august, sun
sun1400:00+19nnw11706 0.0 102112
03:00+18ne11786 0.0 102116
06:00+18ne228114 0.0 102193
09:00+20ene22715 0.0 1021250
12:00+21ene22655 0.0 1021401
15:00+23ene11558 0.0 1020527
18:00+24nne125534 0.0 1019208
21:00+21ne12625 0.0 101911
15 august, mon
mon1500:00+20ne22766 0.0 101916
03:00+19ese227816 0.0 101912
06:00+18se337822 0.0 102083
09:00+21se356632 0.0 1020238
12:00+24e345713 0.0 1020580
15:00+25ene335232 0.0 1019940
18:00+25ne23555 0.0 1018132
21:00+23e336018 0.0 101817
16 august, tue
tue1600:00+21se366745 0.0 101975
03:00+19se347260 0.0 101976
06:00+18sse35785 0.0 1019101
09:00+22se35665 0.0 1019227
12:00+26ese46555 0.0 1019659
15:00+28se46425 0.0 10181291
18:00+28se464744 0.0 1018343
21:00+23sse4663100 0.0 101888
17 august, wed
wed1700:00+21sse5107767 0.0 1019174
03:00+19s35926 3.0 1020104
06:00+19se349088 1.1 102080
09:00+21sse3582100 1.1 1020198
12:00+24se3463100 0.0 1019334
15:00+25ese1355100 0.0 1019496
18:00+24ne226292 0.0 101838
21:00+22ene336798 0.0 101828